Weather History for KMEZ - February, 2014

Change the Weather History Date:

Wednesday, February 26, 2014

  Actual Average (KFSM) Record (KFSM)
Temperature  
Mean Temperature 34 °F -  
Max Temperature 44 °F 54 °F 83 °F (1917)
Min Temperature 19 °F 34 °F 13 °F (1980)
Degree Days  
Heating Degree Days 32    
Moisture  
Dew Point 13 °F    
Average Humidity 44    
Maximum Humidity 68    
Minimum Humidity 22    
Precipitation  
Precipitation 0.00 in - - ()
Sea Level Pressure  
Sea Level Pressure 30.18 in    
Wind  
Wind Speed 8 mph (NNW)    
Max Wind Speed 15 mph    
Max Gust Speed 23 mph    
Visibility 10 miles    
Events      
Averages and records for this station are not official NWS values.
T = Trace of Precipitation, MM = Missing Value Source: NWS Daily Summary

Daily Weather History Graph

Daily Weather History Graph

Search for Another Location

Airport or City:

Trip Planner

Search our weather history database for the weather conditions in past years. The results will help you decide how hot, cold, wet, or windy it might be!

Date:

Astronomy

Feb. 26, 2014 Rise Set
Actual Time 6:49 AM CST 6:10 PM CST
Civil Twilight 6:24 AM CST 6:35 PM CST
Nautical Twilight 5:55 AM CST 7:04 PM CST
Astronomical Twilight 5:25 AM CST 7:33 PM CST
Moon 4:30 AM CST (2/26) 3:30 PM CST (2/26)
Length of Visible Light 12h 11m
Length of Day
11h 20m
Waning Crescent, 10% of the Moon is Illuminated
Feb 26
Waning Crescent
Mar 1
New
Mar 8
First Quarter
Mar 16
Full
Mar 23
Last Quarter

Hourly Weather History & Observations

Time (CST) Temp. Windchill Dew Point Humidity Pressure Visibility Wind Dir Wind Speed Gust Speed Precip Events Conditions
12:15 AM 44.6 °F 41.4 °F 21.2 °F 39% 30.16 in 10.0 mi North 5.8 mph - N/A   Overcast
12:35 AM 42.8 °F 37.5 °F 23.0 °F 46% 30.16 in 10.0 mi North 9.2 mph 16.1 mph N/A   Overcast
12:55 AM 42.8 °F 38.0 °F 23.0 °F 46% 30.17 in 10.0 mi North 8.1 mph - N/A   Overcast
1:15 AM 42.8 °F 38.0 °F 23.0 °F 46% 30.17 in 10.0 mi North 8.1 mph - N/A   Overcast
1:35 AM 42.8 °F 37.0 °F 23.0 °F 46% 30.19 in 10.0 mi NNW 10.4 mph - N/A   Overcast
1:55 AM 41.0 °F 34.7 °F 21.2 °F 45% 30.19 in 10.0 mi North 10.4 mph 17.3 mph N/A   Overcast
2:15 AM 39.2 °F 31.2 °F 21.2 °F 49% 30.20 in 10.0 mi NNW 13.8 mph 18.4 mph N/A   Overcast
2:35 AM 37.4 °F 28.9 °F 21.2 °F 52% 30.20 in 10.0 mi NNW 13.8 mph 18.4 mph N/A   Overcast
2:55 AM 35.6 °F 28.6 °F 21.2 °F 56% 30.20 in 10.0 mi NNW 9.2 mph - N/A   Overcast
3:15 AM 35.6 °F 28.0 °F 19.4 °F 52% 30.20 in 10.0 mi North 10.4 mph - N/A   Overcast
3:35 AM 33.8 °F 25.8 °F 19.4 °F 56% 30.21 in 10.0 mi North 10.4 mph 19.6 mph N/A   Overcast
3:55 AM 33.8 °F 23.9 °F 19.4 °F 56% 30.21 in 10.0 mi North 15.0 mph 23.0 mph N/A   Overcast
4:15 AM 32.0 °F 21.6 °F 19.4 °F 60% 30.22 in 10.0 mi North 15.0 mph 20.7 mph N/A   Overcast
4:35 AM 32.0 °F 24.2 °F 19.4 °F 60% 30.21 in 10.0 mi North 9.2 mph 18.4 mph N/A   Overcast
4:55 AM 32.0 °F 24.8 °F 17.6 °F 55% 30.21 in 10.0 mi NNE 8.1 mph - N/A   Overcast
5:15 AM 32.0 °F 23.6 °F 17.6 °F 55% 30.21 in 10.0 mi North 10.4 mph - N/A   Overcast
5:35 AM 32.0 °F 23.6 °F 17.6 °F 55% 30.22 in 10.0 mi North 10.4 mph - N/A   Scattered Clouds
5:55 AM 32.0 °F 24.8 °F 15.8 °F 51% 30.23 in 10.0 mi NNE 8.1 mph - N/A   Clear
6:15 AM 30.2 °F 21.9 °F 15.8 °F 55% 30.23 in 10.0 mi NNE 9.2 mph 17.3 mph N/A   Clear
6:35 AM 30.2 °F 22.6 °F 14.0 °F 51% 30.24 in 10.0 mi North 8.1 mph 16.1 mph N/A   Clear
6:55 AM 30.2 °F 23.4 °F 14.0 °F 51% 30.24 in 10.0 mi North 6.9 mph - N/A   Clear
7:15 AM 30.2 °F 24.3 °F 12.2 °F 47% 30.25 in 10.0 mi North 5.8 mph - N/A   Clear
7:35 AM 30.2 °F 22.6 °F 12.2 °F 47% 30.26 in 10.0 mi North 8.1 mph - N/A   Clear
7:55 AM 30.2 °F 21.3 °F 12.2 °F 47% 30.26 in 10.0 mi NNW 10.4 mph - N/A   Clear
8:15 AM 30.2 °F 22.6 °F 12.2 °F 47% 30.26 in 10.0 mi North 8.1 mph - N/A   Clear
8:35 AM 30.2 °F 21.9 °F 14.0 °F 51% 30.27 in 10.0 mi North 9.2 mph 17.3 mph N/A   Clear
8:55 AM 32.0 °F 23.6 °F 14.0 °F 48% 30.27 in 10.0 mi North 10.4 mph - N/A   Clear
9:15 AM 32.0 °F 24.2 °F 12.2 °F 44% 30.26 in 10.0 mi North 9.2 mph - N/A   Clear
9:35 AM 32.0 °F 23.0 °F 14.0 °F 48% 30.26 in 10.0 mi NNE 11.5 mph - N/A   Clear
9:55 AM 32.0 °F 24.2 °F 14.0 °F 48% 30.26 in 10.0 mi North 9.2 mph 16.1 mph N/A   Clear
10:15 AM 32.0 °F 24.8 °F 14.0 °F 48% 30.26 in 10.0 mi North 8.1 mph - N/A   Clear
10:35 AM 33.8 °F 25.3 °F 14.0 °F 44% 30.25 in 10.0 mi NNE 11.5 mph - N/A   Clear
10:55 AM 33.8 °F 28.6 °F 14.0 °F 44% 30.25 in 10.0 mi North 5.8 mph - N/A   Clear
11:15 AM 33.8 °F 27.0 °F 14.0 °F 44% 30.24 in 10.0 mi North 8.1 mph - N/A   Clear
11:35 AM 35.6 °F 30.7 °F 14.0 °F 41% 30.24 in 10.0 mi NNE 5.8 mph - N/A   Clear
11:55 AM 35.6 °F 29.2 °F 14.0 °F 41% 30.23 in 10.0 mi NNW 8.1 mph - N/A   Clear
12:15 PM 35.6 °F 29.2 °F 14.0 °F 41% 30.21 in 10.0 mi North 8.1 mph - N/A   Clear
12:35 PM 37.4 °F 30.3 °F 14.0 °F 38% 30.20 in 10.0 mi North 10.4 mph - N/A   Clear
12:55 PM 37.4 °F 32.1 °F 14.0 °F 38% 30.18 in 10.0 mi NNE 6.9 mph - N/A   Clear
1:15 PM 37.4 °F 32.1 °F 14.0 °F 38% 30.17 in 10.0 mi NW 6.9 mph - N/A   Clear
1:35 PM 39.2 °F 34.2 °F 14.0 °F 36% 30.17 in 10.0 mi NNE 6.9 mph - N/A   Clear
1:55 PM 39.2 °F 33.6 °F 12.2 °F 33% 30.16 in 10.0 mi North 8.1 mph - N/A   Clear
2:15 PM 39.2 °F 35.9 °F 12.2 °F 33% 30.15 in 10.0 mi NNW 4.6 mph 16.1 mph N/A   Clear
2:35 PM 41.0 °F 37.1 °F 12.2 °F 31% 30.15 in 10.0 mi NNW 5.8 mph 16.1 mph N/A   Clear
2:55 PM 41.0 °F 33.5 °F 12.2 °F 31% 30.15 in 10.0 mi NW 13.8 mph 18.4 mph N/A   Clear
3:15 PM 41.0 °F 36.4 °F 10.4 °F 29% 30.13 in 10.0 mi NW 6.9 mph - N/A   Clear
3:35 PM 41.0 °F 38.0 °F 10.4 °F 29% 30.12 in 10.0 mi NW 4.6 mph - N/A   Clear
3:55 PM 41.0 °F - 10.4 °F 29% 30.11 in 10.0 mi Calm Calm - N/A   Clear
4:15 PM 41.0 °F 35.8 °F 8.6 °F 26% 30.11 in 10.0 mi WNW 8.1 mph - N/A   Clear
4:35 PM 41.0 °F 35.8 °F 6.8 °F 24% 30.10 in 10.0 mi West 8.1 mph - N/A   Clear
4:55 PM 39.2 °F 35.0 °F 5.0 °F 24% 30.10 in 10.0 mi North 5.8 mph - N/A   Clear
5:15 PM 39.2 °F 35.9 °F 3.2 °F 22% 30.10 in 10.0 mi North 4.6 mph - N/A   Clear
5:35 PM 37.4 °F 33.8 °F 3.2 °F 24% 30.10 in 10.0 mi North 4.6 mph - N/A   Clear
5:55 PM 37.4 °F 32.8 °F 6.8 °F 28% 30.10 in 10.0 mi West 5.8 mph - N/A   Clear
6:15 PM 35.6 °F 32.8 °F 8.6 °F 33% 30.10 in 10.0 mi NW 3.5 mph - N/A   Clear
6:35 PM 33.8 °F 30.8 °F 6.8 °F 32% 30.10 in 10.0 mi NW 3.5 mph - N/A   Clear
6:55 PM 33.8 °F - 6.8 °F 32% 30.10 in 10.0 mi Calm Calm - N/A   Clear
7:15 PM 32.0 °F 28.7 °F 6.8 °F 35% 30.09 in 10.0 mi West 3.5 mph - N/A   Clear
7:35 PM 32.0 °F 28.7 °F 8.6 °F 38% 30.10 in 10.0 mi West 3.5 mph - N/A   Clear
7:55 PM 32.0 °F 27.5 °F 10.4 °F 41% 30.09 in 10.0 mi West 4.6 mph - N/A   Clear
8:15 PM 28.4 °F - 10.4 °F 47% 30.10 in 10.0 mi Calm Calm - N/A   Clear
8:35 PM 30.2 °F - 10.4 °F 44% 30.11 in 10.0 mi Calm Calm - N/A   Clear
8:55 PM 30.2 °F - 10.4 °F 44% 30.12 in 10.0 mi Calm Calm - N/A   Clear
9:15 PM 30.2 °F 25.4 °F 10.4 °F 44% 30.13 in 10.0 mi WSW 4.6 mph - N/A   Clear
9:35 PM 23.0 °F - 10.4 °F 59% 30.13 in 10.0 mi Calm Calm - N/A   Clear
9:55 PM 24.8 °F 20.5 °F 10.4 °F 54% 30.14 in 10.0 mi WSW 3.5 mph - N/A   Clear
10:15 PM 28.4 °F 24.6 °F 10.4 °F 47% 30.14 in 10.0 mi West 3.5 mph - N/A   Clear
10:35 PM 26.6 °F - 8.6 °F 47% 30.14 in 10.0 mi Calm Calm - N/A   Clear
10:55 PM 24.8 °F 19.1 °F 8.6 °F 50% 30.13 in 10.0 mi West 4.6 mph - N/A   Clear
11:15 PM 26.6 °F 22.6 °F 8.6 °F 47% 30.12 in 10.0 mi West 3.5 mph - N/A   Clear
11:35 PM 23.0 °F - 10.4 °F 59% 30.12 in 10.0 mi Calm Calm - N/A   Clear
11:55 PM 19.4 °F - 10.4 °F 68% 30.11 in 10.0 mi Calm Calm - N/A   Clear